DW6345 Murcia ES current weather conditions

sailwx.info

Wind from 127 at 1 knots gusting 2

Air temperature 21.7° C
Dewpoint 19.6° C

Last reported at 2014-Sep-30 22:46 UTC.
Time now 2014-Sep-30 23:59 UTC

Location: N 37°60' W 001°06'.
View on Google Maps.

See reports from other nearby stations

  
Tides and Currents Weather Stations Pressure Air Temp Water Temp Dewpoint Dewpoint Depression Visibility Wind Speed Wind Dir Waves Ship Positions
date/time (UTC)wind fromknots sea level pressurealtimeterstation pressurevisibilityair tempwater tempwave heightnotes
2014-Sep-30 22:46 127 1 gusting 2 21.7
2014-Sep-30 22:36 045 0 gusting 5 21.7
2014-Sep-30 22:26 045 0 gusting 5 21.7
2014-Sep-30 22:15 024 2 gusting 5 21.7
2014-Sep-30 22:06 045 0 gusting 1 21.7
2014-Sep-30 21:56 065 0 gusting 2 21.7
2014-Sep-30 21:46 045 21.7
2014-Sep-30 21:36 045 21.7
2014-Sep-30 21:26 045 21.7
2014-Sep-30 21:16 045 22.2
2014-Sep-30 21:06 090 0 gusting 1 21.7
2014-Sep-30 20:56 090 0 gusting 2 22.2
2014-Sep-30 20:46 090 0 gusting 2 22.2
2014-Sep-30 20:36 090 0 gusting 2 22.2
2014-Sep-30 20:26 052 0 gusting 2 22.2
2014-Sep-30 20:16 051 0 gusting 2 22.2
2014-Sep-30 20:06 045 0 gusting 2 22.2
2014-Sep-30 19:56 045 0 gusting 1 22.8
2014-Sep-30 19:46 090 0 gusting 1 22.8
2014-Sep-30 19:36 090 22.8
2014-Sep-30 19:26 122 1 gusting 2 22.8
2014-Sep-30 19:16 090 0 gusting 5 22.8
2014-Sep-30 19:06 090 4 gusting 6 22.8
2014-Sep-30 18:56 113 3 gusting 7 22.8
2014-Sep-30 18:46 045 4 gusting 6 23.3
2014-Sep-30 18:36 090 5 gusting 6 23.3
2014-Sep-30 18:26 090 2 gusting 6 23.3
2014-Sep-30 18:16 107 0 gusting 5 23.3
2014-Sep-30 18:06 090 2 gusting 6 23.3
2014-Sep-30 17:56 165 2 gusting 8 23.3
2014-Sep-30 17:46 090 2 gusting 6 23.9
2014-Sep-30 17:36 094 4 gusting 10 23.9
2014-Sep-30 17:26 082 4 gusting 8 23.9
2014-Sep-30 17:16 106 5 gusting 10 23.9
2014-Sep-30 17:06 116 2 gusting 10 23.9
2014-Sep-30 16:56 105 5 gusting 11 23.9
2014-Sep-30 16:46 212 3 gusting 11 23.9
2014-Sep-30 16:36 090 6 gusting 11 24.4
2014-Sep-30 16:26 135 3 gusting 11 25.0
2014-Sep-30 16:16 114 5 gusting 11 25.6
2014-Sep-30 16:06 090 4 gusting 8 26.1
2014-Sep-30 15:56 135 4 gusting 11 26.7
2014-Sep-30 15:46 151 5 gusting 11 26.7
2014-Sep-30 15:36 135 3 gusting 8 26.7
2014-Sep-30 15:26 135 5 gusting 10 27.2
2014-Sep-30 15:16 073 4 gusting 10 27.8
2014-Sep-30 15:06 135 4 gusting 8 27.8
2014-Sep-30 14:56 135 4 gusting 8 28.3
2014-Sep-30 14:46 129 2 gusting 8 28.3
2014-Sep-30 14:36 165 4 gusting 8 27.8
2014-Sep-30 14:26 092 6 gusting 10 28.3
2014-Sep-30 14:16 102 5 gusting 8 28.3
2014-Sep-30 14:06 135 4 gusting 8 27.8
2014-Sep-30 13:56 090 5 gusting 11 27.8
2014-Sep-30 13:46 099 6 gusting 8 28.3
2014-Sep-30 13:36 093 4 gusting 11 28.3
2014-Sep-30 13:26 090 2 gusting 6 28.3
2014-Sep-30 13:16 135 1 gusting 6 28.3
2014-Sep-30 13:06 135 4 gusting 6 27.8
2014-Sep-30 12:56 090 1 gusting 6 28.3
2014-Sep-30 12:46 090 2 gusting 6 27.8
2014-Sep-30 12:36 090 2 gusting 5 27.8
2014-Sep-30 12:26 037 2 gusting 6 27.2
2014-Sep-30 12:16 047 4 gusting 6 27.8
2014-Sep-30 12:06 090 2 gusting 5 27.2
2014-Sep-30 11:56 122 1 gusting 5 27.2
2014-Sep-30 11:46 122 2 gusting 5 27.2
2014-Sep-30 11:36 077 1 gusting 5 27.8
2014-Sep-30 11:26 170 1 gusting 5 27.2
2014-Sep-30 11:16 140 1 gusting 4 27.2
2014-Sep-30 11:06 135 2 gusting 5 26.1
2014-Sep-30 10:56 344 25.6
2014-Sep-30 10:46 207 2 gusting 4 25.6
2014-Sep-30 10:36 196 0 gusting 2 25.0
2014-Sep-30 10:26 018 1 gusting 5 24.4
2014-Sep-30 10:16 330 1 gusting 6 23.9
2014-Sep-30 10:06 315 2 gusting 4 23.9
2014-Sep-30 09:56 271 0 gusting 4 23.9
2014-Sep-30 09:46 270 0 gusting 5 23.3
2014-Sep-30 09:36 225 2 gusting 5 22.8
2014-Sep-30 09:26 270 1 gusting 6 22.2
2014-Sep-30 09:16 315 2 gusting 6 22.2
2014-Sep-30 09:06 287 2 gusting 4 21.7
2014-Sep-30 08:56 270 0 gusting 2 21.1
2014-Sep-30 08:46 265 0 gusting 2 21.1
2014-Sep-30 08:36 270 0 gusting 2 20.6
2014-Sep-30 08:26 315 0 gusting 2 20.0
2014-Sep-30 08:16 287 0 gusting 2 20.0
2014-Sep-30 08:06 315 0 gusting 2 19.4
2014-Sep-30 07:56 244 0 gusting 2 19.4
2014-Sep-30 07:46 248 0 gusting 2 18.9
2014-Sep-30 07:36 306 0 gusting 2 18.9
2014-Sep-30 07:26 270 0 gusting 2 18.9
2014-Sep-30 07:16 270 1 gusting 4 18.3
2014-Sep-30 07:06 248 0 gusting 5 18.3
2014-Sep-30 06:56 248 1 gusting 5 18.3
2014-Sep-30 06:46 194 1 gusting 4 18.3
2014-Sep-30 06:36 270 0 gusting 5 18.3
2014-Sep-30 06:26 289 2 gusting 5 18.3
2014-Sep-30 06:16 249 0 gusting 1 18.3
2014-Sep-30 06:06 270 0 gusting 4 18.3
2014-Sep-30 05:56 248 2 gusting 4 18.3
2014-Sep-30 05:46 270 0 gusting 2 18.3
2014-Sep-30 04:46 271 2 gusting 6 18.3
2014-Sep-30 04:36 297 1 gusting 2 18.3
2014-Sep-30 04:26 248 1 gusting 4 18.3
2014-Sep-30 04:16 248 1 gusting 2 18.3
2014-Sep-30 04:06 180 0 gusting 1 18.9
2014-Sep-30 03:56 304 18.9
2014-Sep-30 03:46 314 18.9
2014-Sep-30 03:36 295 1 gusting 2 18.9
2014-Sep-30 03:26 315 1 gusting 2 18.9
2014-Sep-30 03:16 315 18.9
2014-Sep-30 03:06 315 0 gusting 1 18.9
2014-Sep-30 02:56 304 0 gusting 2 18.9
2014-Sep-30 02:46 315 1 gusting 4 18.9
2014-Sep-30 02:36 282 1 gusting 4 18.9
2014-Sep-30 02:26 270 1 gusting 2 18.9
2014-Sep-30 02:16 270 1 gusting 4 18.9
2014-Sep-30 02:06 270 2 gusting 4 19.4
2014-Sep-30 01:56 265 1 gusting 4 19.4
2014-Sep-30 01:46 264 1 gusting 2 19.4
2014-Sep-30 01:36 270 1 gusting 4 19.4
2014-Sep-30 01:26 281 1 gusting 5 19.4
2014-Sep-30 01:16 270 2 gusting 4 19.4
2014-Sep-30 01:06 270 1 gusting 2 19.4
2014-Sep-30 00:56 248 0 gusting 2 18.9
2014-Sep-30 00:46 248 0 gusting 2 19.4
2014-Sep-30 00:36 248 19.4
2014-Sep-30 00:26 263 0 gusting 2 19.4
2014-Sep-30 00:16 270 19.4
2014-Sep-30 00:06 270 0 gusting 2 19.4
2014-Sep-29 23:56 269 1 gusting 2 19.4
2014-Sep-29 23:46 315 0 gusting 2 19.4
2014-Sep-29 23:36 270 0 gusting 2 19.4
2014-Sep-29 23:26 293 0 gusting 2 19.4
2014-Sep-29 23:16 291 0 gusting 6 19.4
2014-Sep-29 23:06 248 4 gusting 6 19.4
2014-Sep-29 22:56 248 3 gusting 6 19.4
2014-Sep-29 22:46 180 2 gusting 4 18.9
2014-Sep-29 22:36 315 18.9
2014-Sep-29 22:26 045 1 gusting 2 19.4
2014-Sep-29 22:15 045 1 gusting 5 19.4
2014-Sep-29 22:06 315 2 gusting 5 19.4
2014-Sep-29 21:56 315 2 gusting 5 20.0
2014-Sep-29 21:46 315 0 gusting 2 20.0
2014-Sep-29 21:36 282 0 gusting 2 20.0
2014-Sep-29 21:16 090 2 gusting 5 20.0
2014-Sep-29 21:06 045 0 gusting 2 20.0
2014-Sep-29 20:56 315 0 gusting 2 20.0
2014-Sep-29 20:46 045 0 gusting 2 20.0
2014-Sep-29 20:36 045 0 gusting 6 20.0
2014-Sep-29 20:26 090 3 gusting 6 20.0
2014-Sep-29 20:06 045 2 gusting 6 20.6
2014-Sep-29 19:56 063 1 gusting 5 20.6
2014-Sep-29 19:46 180 2 gusting 13 21.1
2014-Sep-29 19:36 181 10 gusting 15 22.2
2014-Sep-29 19:26 180 3 gusting 6 22.8
2014-Sep-29 19:16 135 1 gusting 6 22.8
2014-Sep-29 19:06 045 2 gusting 6 23.3
2014-Sep-29 18:56 066 4 gusting 10 22.8
2014-Sep-29 18:36 053 4 gusting 8 23.3
2014-Sep-29 18:26 056 1 gusting 5 23.9
2014-Sep-29 18:16 090 2 gusting 5 23.9
2014-Sep-29 18:06 090 1 gusting 2 23.9
2014-Sep-29 17:56 135 0 gusting 4 24.4
2014-Sep-29 17:46 172 0 gusting 2 24.4
2014-Sep-29 17:36 135 1 gusting 6 24.4
2014-Sep-29 17:16 111 2 gusting 7 25.0
2014-Sep-29 16:46 143 1 gusting 5 25.6
2014-Sep-29 16:36 102 3 gusting 7 25.6
2014-Sep-29 16:26 090 4 gusting 7 26.1
2014-Sep-29 16:16 090 2 gusting 6 26.1
2014-Sep-29 16:06 109 3 gusting 6 26.1
2014-Sep-29 15:56 090 2 gusting 6 26.7
2014-Sep-29 15:46 094 0 gusting 6 26.7
2014-Sep-29 15:36 135 4 gusting 6 26.7
2014-Sep-29 15:26 115 2 gusting 6 26.7
2014-Sep-29 15:06 090 1 gusting 6 27.2
2014-Sep-29 14:56 135 2 gusting 6 27.2
2014-Sep-29 14:46 109 2 gusting 7 26.7
2014-Sep-29 14:36 135 2 gusting 6 26.7
2014-Sep-29 14:26 147 2 gusting 6 26.7
2014-Sep-29 14:06 135 1 gusting 6 25.6
2014-Sep-29 13:56 180 4 gusting 6 25.6
2014-Sep-29 13:46 179 3 gusting 6 25.6
2014-Sep-29 13:36 180 2 gusting 6 25.6
2014-Sep-29 13:16 109 1 gusting 2 25.0
2014-Sep-29 13:06 135 0 gusting 5 23.9
2014-Sep-29 12:46 259 1 gusting 2 23.3
2014-Sep-29 12:36 090 23.3
2014-Sep-29 12:26 140 0 gusting 2 23.3
2014-Sep-29 12:16 180 1 gusting 2 22.8
2014-Sep-29 12:06 090 1 gusting 4 22.2
2014-Sep-29 11:46 071 1 gusting 4 21.7
2014-Sep-29 11:36 148 0 gusting 2 21.7
2014-Sep-29 11:16 157 0 gusting 5 21.1
2014-Sep-29 11:06 045 21.1
2014-Sep-29 10:56 236 1 gusting 6 21.1
2014-Sep-29 10:46 270 3 gusting 8 21.1
2014-Sep-29 10:36 290 2 gusting 5 21.1
2014-Sep-29 10:16 045 0 gusting 2 21.1
2014-Sep-29 09:56 270 2 gusting 6 21.1
2014-Sep-29 09:46 248 2 gusting 5 21.1
2014-Sep-29 09:36 188 2 gusting 5 21.7
2014-Sep-29 09:26 315 0 gusting 4 21.7
2014-Sep-29 09:06 045 21.7
2014-Sep-29 08:56 090 21.7
2014-Sep-29 08:46 180 21.7
2014-Sep-29 08:36 180 0 gusting 2 21.7
2014-Sep-29 08:26 180 1 gusting 2 21.7
2014-Sep-29 08:16 217 0 gusting 5 21.7
2014-Sep-29 08:06 227 2 gusting 5 21.7
2014-Sep-29 07:56 180 2 gusting 5 21.7
2014-Sep-29 07:36 270 0 gusting 0 21.1
2014-Sep-29 07:16 045 2 gusting 5 21.1
2014-Sep-29 07:06 045 2 gusting 5 21.1
2014-Sep-29 06:56 278 0 gusting 2 21.1
2014-Sep-29 06:46 315 0 gusting 2 21.1
2014-Sep-29 06:16 315 0 gusting 1 21.1
2014-Sep-29 06:06 270 21.1
2014-Sep-29 05:56 180 21.1
2014-Sep-29 05:46 180 0 gusting 1 21.1
2014-Sep-29 04:46 315 21.1
2014-Sep-29 04:36 270 0 gusting 2 21.1
2014-Sep-29 04:26 274 1 gusting 5 21.1
2014-Sep-29 04:16 272 2 gusting 5 21.1
2014-Sep-29 04:06 315 2 gusting 5 21.1
2014-Sep-29 03:46 270 0 gusting 2 21.1
2014-Sep-29 03:36 248 1 gusting 2 21.1
2014-Sep-29 03:26 270 0 gusting 2 21.1
2014-Sep-29 03:16 268 0 gusting 0 21.1
2014-Sep-29 03:06 180 21.1
2014-Sep-29 02:56 243 0 gusting 5 21.1
2014-Sep-29 02:46 248 2 gusting 5 21.1
2014-Sep-29 02:36 270 1 gusting 5 21.1
2014-Sep-29 02:26 248 4 gusting 5 21.1
2014-Sep-29 02:16 262 1 gusting 4 21.1
2014-Sep-29 02:06 180 1 gusting 2 21.1
2014-Sep-29 01:56 226 1 gusting 2 21.1
2014-Sep-29 01:46 180 1 gusting 2 21.1
2014-Sep-29 01:26 270 0 gusting 2 21.1
2014-Sep-29 01:16 270 0 gusting 2 21.1
2014-Sep-29 01:06 315 0 gusting 2 21.1
2014-Sep-29 00:56 045 0 gusting 1 21.1
2014-Sep-29 00:46 089 21.1
2014-Sep-29 00:26 064 0 gusting 2 21.1
2014-Sep-29 00:06 045 21.7
2014-Sep-28 23:56 180 21.1
2014-Sep-28 23:46 135 0 gusting 2 21.7
2014-Sep-28 23:36 155 21.7
2014-Sep-28 23:26 090 1 gusting 2 21.7
2014-Sep-28 23:16 094 1 gusting 2 21.7